Time,TemperatureF,DewpointF,PressureIn,WindDirection,WindDirectionDegrees,WindSpeedMPH,WindSpeedGustMPH,Humidity,HourlyPrecipIn,Conditions,Clouds,dailyrainin,SoftwareType,DateUTC
2013-04-15 10:20:00,49.1,48.0,30.10,East,94,6.0,7.0,96,0.00,,,0.13,Wunderground v.1.15,2013-04-15 14:20:00,
2013-04-15 10:25:00,49.3,48.2,30.10,NE,56,6.0,7.0,96,0.00,,,0.13,Wunderground v.1.15,2013-04-15 14:25:00,
2013-04-15 10:30:00,49.3,48.2,30.10,SE,127,6.0,11.0,96,0.00,,,0.13,Wunderground v.1.15,2013-04-15 14:30:00,
2013-04-15 10:40:00,49.4,48.3,30.10,ESE,115,6.0,6.0,96,0.00,,,0.13,Wunderground v.1.15,2013-04-15 14:40:00,
2013-04-15 10:50:00,49.7,48.6,30.10,ENE,63,5.0,5.0,96,0.00,,,0.13,Wunderground v.1.15,2013-04-15 14:50:00,
2013-04-15 10:55:00,49.9,48.8,30.10,East,97,4.0,5.0,96,0.00,,,0.13,Wunderground v.1.15,2013-04-15 14:55:00,
2013-04-15 11:00:00,50.1,49.0,30.10,SE,132,5.0,5.0,96,0.00,,,0.13,Wunderground v.1.15,2013-04-15 15:00:00,
2013-04-15 11:10:00,50.5,49.1,30.10,ESE,105,6.0,17.0,95,0.00,,,0.13,Wunderground v.1.15,2013-04-15 15:10:00,
2013-04-15 11:20:00,51.2,49.8,30.11,ESE,114,5.0,5.0,95,0.00,,,0.13,Wunderground v.1.15,2013-04-15 15:20:00,
2013-04-15 11:30:00,51.3,49.3,30.11,ESE,103,6.0,17.0,93,0.00,,,0.13,Wunderground v.1.15,2013-04-15 15:30:00,
2013-04-15 11:40:00,51.1,49.1,30.11,SE,131,7.0,7.0,93,0.00,,,0.13,Wunderground v.1.15,2013-04-15 15:40:00,
2013-04-15 11:50:00,51.3,49.3,30.11,SE,137,6.0,6.0,93,0.00,,,0.13,Wunderground v.1.15,2013-04-15 15:50:00,
2013-04-15 12:00:00,51.9,49.9,30.11,ESE,108,5.0,5.0,93,0.00,,,0.13,Wunderground v.1.15,2013-04-15 16:00:00,
2013-04-15 12:10:00,52.5,49.9,30.11,East,93,5.0,6.0,91,0.00,,,0.13,Wunderground v.1.15,2013-04-15 16:10:00,
2013-04-15 12:20:00,52.6,50.0,30.11,ESE,120,5.0,6.0,91,0.00,,,0.13,Wunderground v.1.15,2013-04-15 16:20:00,
2013-04-15 12:30:00,51.8,49.3,30.11,ESE,112,6.0,7.0,91,0.00,,,0.13,Wunderground v.1.15,2013-04-15 16:30:00,
2013-04-15 12:40:00,51.5,49.3,30.12,SE,129,6.0,6.0,92,0.00,,,0.13,Wunderground v.1.15,2013-04-15 16:40:00,
2013-04-15 12:50:00,51.6,49.4,30.12,East,82,5.0,6.0,92,0.00,,,0.13,Wunderground v.1.15,2013-04-15 16:50:00,
2013-04-15 13:00:00,51.5,49.3,30.12,ESE,107,6.0,6.0,92,0.00,,,0.13,Wunderground v.1.15,2013-04-15 17:00:00,
2013-04-15 13:10:00,51.6,49.1,30.12,East,91,5.0,5.0,91,0.00,,,0.13,Wunderground v.1.15,2013-04-15 17:10:00,
2013-04-15 13:25:00,52.2,49.7,30.12,ESE,106,4.0,18.0,91,0.00,,,0.13,Wunderground v.1.15,2013-04-15 17:25:00,
2013-04-15 13:30:00,52.5,49.7,30.12,SE,145,4.0,18.0,90,0.00,,,0.13,Wunderground v.1.15,2013-04-15 17:30:00,
2013-04-15 13:35:00,52.9,49.4,30.12,ESE,113,6.0,18.0,88,0.00,,,0.13,Wunderground v.1.15,2013-04-15 17:35:00,
2013-04-15 13:40:00,53.5,50.0,30.12,NNE,29,5.0,5.0,88,0.00,,,0.13,Wunderground v.1.15,2013-04-15 17:40:00,
2013-04-15 13:50:00,53.7,50.2,30.12,SE,127,6.0,18.0,88,0.00,,,0.13,Wunderground v.1.15,2013-04-15 17:50:00,
2013-04-15 14:00:00,53.7,50.2,30.12,ESE,114,7.0,18.0,88,0.00,,,0.13,Wunderground v.1.15,2013-04-15 18:00:00,
2013-04-15 14:10:00,53.6,50.1,30.13,East,93,6.0,10.0,88,0.00,,,0.13,Wunderground v.1.15,2013-04-15 18:10:00,
2013-04-15 14:20:00,53.6,49.8,30.13,East,96,5.0,5.0,87,0.00,,,0.13,Wunderground v.1.15,2013-04-15 18:20:00,
2013-04-15 14:30:00,53.6,50.1,30.12,East,90,5.0,5.0,88,0.00,,,0.13,Wunderground v.1.15,2013-04-15 18:30:00,
2013-04-15 14:35:00,53.7,50.2,30.12,East,101,5.0,7.0,88,0.00,,,0.13,Wunderground v.1.15,2013-04-15 18:35:00,
2013-04-15 14:40:00,53.9,50.4,30.12,ESE,116,5.0,5.0,88,0.00,,,0.13,Wunderground v.1.15,2013-04-15 18:40:00,
2013-04-15 14:50:00,54.0,49.9,30.12,East,84,5.0,5.0,86,0.00,,,0.13,Wunderground v.1.15,2013-04-15 18:50:00,
2013-04-15 15:01:00,53.8,49.7,30.12,East,81,5.0,5.0,86,0.00,,,0.13,Wunderground v.1.15,2013-04-15 19:01:00,
2013-04-15 15:05:00,53.7,49.9,30.12,SE,128,5.0,13.0,87,0.00,,,0.13,Wunderground v.1.15,2013-04-15 19:05:00,
2013-04-15 15:10:00,53.7,49.6,30.12,ESE,106,5.0,13.0,86,0.00,,,0.13,Wunderground v.1.15,2013-04-15 19:10:00,
2013-04-15 15:20:00,53.8,50.0,30.12,SE,127,5.0,13.0,87,0.00,,,0.13,Wunderground v.1.15,2013-04-15 19:20:00,
2013-04-15 15:30:00,53.4,49.9,30.12,ESE,120,6.0,13.0,88,0.00,,,0.13,Wunderground v.1.15,2013-04-15 19:30:00,
2013-04-15 15:41:00,53.1,50.2,30.12,East,94,5.0,13.0,90,0.00,,,0.13,Wunderground v.1.15,2013-04-15 19:41:00,
2013-04-15 15:50:00,52.8,49.9,30.12,ENE,67,5.0,5.0,90,0.00,,,0.13,Wunderground v.1.15,2013-04-15 19:50:00,
2013-04-15 16:05:00,52.6,50.3,30.12,SE,136,4.0,13.0,92,0.00,,,0.13,Wunderground v.1.15,2013-04-15 20:05:00,
2013-04-15 16:11:00,52.7,50.4,30.12,ESE,123,3.0,4.0,92,0.00,,,0.13,Wunderground v.1.15,2013-04-15 20:11:00,
2013-04-15 16:15:00,52.8,50.5,30.11,ENE,74,3.0,4.0,92,0.00,,,0.13,Wunderground v.1.15,2013-04-15 20:15:00,
2013-04-15 16:20:00,52.8,50.5,30.11,East,81,3.0,3.0,92,0.00,,,0.13,Wunderground v.1.15,2013-04-15 20:20:00,
2013-04-15 16:25:00,52.6,50.3,30.12,ENE,68,4.0,4.0,92,0.00,,,0.13,Wunderground v.1.15,2013-04-15 20:25:00,
2013-04-15 16:30:00,52.6,50.3,30.12,ESE,108,4.0,4.0,92,0.00,,,0.13,Wunderground v.1.15,2013-04-15 20:30:00,
2013-04-15 16:35:00,52.6,50.3,30.12,SE,130,4.0,4.0,92,0.00,,,0.13,Wunderground v.1.15,2013-04-15 20:35:00,
2013-04-15 16:41:00,52.6,50.6,30.12,ESE,120,3.0,3.0,93,0.00,,,0.13,Wunderground v.1.15,2013-04-15 20:41:00,
2013-04-15 16:50:00,52.5,50.5,30.12,ESE,104,2.0,3.0,93,0.00,,,0.13,Wunderground v.1.15,2013-04-15 20:50:00,